TimeMST,TemperatureF,Dew PointF,Humidity,Sea Level PressureIn,VisibilityMPH,Wind Direction,Wind SpeedMPH,Gust SpeedMPH,PrecipitationIn,Events,Conditions,WindDirDegrees,DateUTC
12:53 AM,17.1,12.9,84,30.42,10.0,North,3.5,-,N/A,,Scattered Clouds,10,2012-11-13 07:53:00
1:53 AM,18.0,14.0,84,30.41,10.0,NNW,5.8,-,N/A,,Mostly Cloudy,330,2012-11-13 08:53:00
2:53 AM,15.1,10.9,84,30.43,10.0,Calm,Calm,-,N/A,,Clear,0,2012-11-13 09:53:00
3:53 AM,17.1,12.9,84,30.40,10.0,Calm,Calm,-,N/A,,Overcast,0,2012-11-13 10:53:00
4:53 AM,15.1,10.0,80,30.43,10.0,Calm,Calm,-,N/A,,Mostly Cloudy,0,2012-11-13 11:53:00
5:53 AM,16.0,12.0,84,30.42,10.0,Calm,Calm,-,N/A,,Overcast,0,2012-11-13 12:53:00
6:53 AM,16.0,12.0,84,30.45,10.0,West,3.5,-,N/A,,Overcast,260,2012-11-13 13:53:00
7:53 AM,19.9,16.0,85,30.44,10.0,NW,4.6,-,N/A,,Overcast,310,2012-11-13 14:53:00
8:19 AM,21.2,17.6,86,30.34,10.0,WNW,3.5,-,N/A,,Overcast,300,2012-11-13 15:19:00
8:53 AM,24.1,18.0,77,30.42,10.0,Calm,Calm,-,N/A,,Scattered Clouds,0,2012-11-13 15:53:00
9:53 AM,28.0,18.0,66,30.40,10.0,Variable,3.5,-,N/A,,Clear,0,2012-11-13 16:53:00
10:53 AM,30.9,19.0,61,30.40,10.0,South,3.5,-,N/A,,Clear,190,2012-11-13 17:53:00
11:53 AM,33.1,19.9,59,30.35,10.0,SE,3.5,-,N/A,,Clear,140,2012-11-13 18:53:00
12:53 PM,35.1,19.9,54,30.34,10.0,South,6.9,-,N/A,,Partly Cloudy,180,2012-11-13 19:53:00
1:53 PM,36.0,19.9,52,30.32,10.0,Calm,Calm,-,N/A,,Mostly Cloudy,0,2012-11-13 20:53:00
2:53 PM,37.0,19.9,50,30.32,10.0,ESE,3.5,-,N/A,,Overcast,110,2012-11-13 21:53:00
3:53 PM,37.0,21.0,52,30.32,10.0,Calm,Calm,-,N/A,,Overcast,0,2012-11-13 22:53:00
4:53 PM,34.0,21.0,59,30.33,10.0,SE,4.6,-,N/A,,Scattered Clouds,140,2012-11-13 23:53:00
5:53 PM,30.0,23.0,75,30.37,10.0,SSE,4.6,-,N/A,,Overcast,160,2012-11-14 00:53:00
6:53 PM,27.0,21.9,81,30.37,10.0,SSE,5.8,-,N/A,,Clear,160,2012-11-14 01:53:00
7:53 PM,26.1,21.0,81,30.36,10.0,South,5.8,-,N/A,,Clear,190,2012-11-14 02:53:00
8:53 PM,21.0,18.0,88,30.36,10.0,Calm,Calm,-,N/A,,Mostly Cloudy,0,2012-11-14 03:53:00
9:53 PM,24.1,19.9,84,30.32,10.0,SSE,5.8,-,N/A,,Overcast,160,2012-11-14 04:53:00
10:53 PM,23.0,19.9,88,30.30,10.0,East,4.6,-,N/A,,Mostly Cloudy,90,2012-11-14 05:53:00
11:53 PM,23.0,19.9,88,30.28,10.0,ENE,5.8,-,N/A,,Mostly Cloudy,60,2012-11-14 06:53:00